Regional Weather Roundup
Issued by NWS

Home | Current Version | Previous Version | Text Only | Print | Product List | Glossary On
Versions: 1 2 3 4 5 6 7 8 9 10 11 12 13 14 15 16 17 18 19 20 21 22 23 24 25 26 27 28 29 30 31 32 33 34 35 36 37 38 39 40 41 42 43 44 45 46 47 48 49 50
000
ASUS46 KPQR 201210
RWROR

OREGON REGIONAL WEATHER ROUNDUP
NATIONAL WEATHER SERVICE PORTLAND OR
500 AM PDT FRI OCT 20 2017

NOTE: "FAIR" INDICATES FEW OR NO CLOUDS BELOW 12,000 FEET WITH
NO SIGNIFICANT WEATHER AND/OR OBSTRUCTIONS TO VISIBILITY.

ORZ001>013-201300-
NORTHWEST OREGON


CITY           SKY/WX    TMP DP  RH WIND       PRES   REMARKS
ASTORIA        RAIN      49  44  83 SW7       29.65R
6HR MIN TEMP:  46; 6HR MAX TEMP:  51; 6HR PCP:  0.06;

NEWPORT        CLOUDY    52  48  87 SW16G26   29.77R FOG
PORTLAND       LGT RAIN  49  46  90 S12       29.69R
6HR MIN TEMP:  49; 6HR MAX TEMP:  50; 6HR PCP: TRACE;

VANCOUVER WA   CLOUDY    50  47  89 VRB5      29.69R
6HR MIN TEMP:  50; 6HR MAX TEMP:  51; 6HR PCP: TRACE;

SCAPPOOSE      LGT RAIN  47  46  97 SE3       29.68R
6HR MIN TEMP:  44; 6HR MAX TEMP:  51; 6HR PCP:  0.03;

HILLSBORO      CLOUDY    48  46  93 CALM      29.69R
6HR MIN TEMP:  45; 6HR MAX TEMP:  50; 6HR PCP:  0.02;

AURORA         CLOUDY    48  47  96 SW7       29.72R
6HR MIN TEMP:  48; 6HR MAX TEMP:  50; 6HR PCP:  0.03;

MCMINNVILLE    LGT RAIN  48  46  93 SW10      29.72R
6HR MIN TEMP:  48; 6HR MAX TEMP:  50; 6HR PCP:  0.12;

SALEM          CLOUDY    48  45  89 SW7       29.72R
6HR MIN TEMP:  48; 6HR MAX TEMP:  50; 6HR PCP:  0.37;

CORVALLIS      LGT RAIN  48  46  93 S9        29.75R
EUGENE         LGT RAIN  46  46 100 S8        29.78R
6HR MIN TEMP:  46; 6HR MAX TEMP:  48; 6HR PCP:  0.22;

$$

ORZ021-028-201300-
SOUTHWEST OREGON


CITY           SKY/WX    TMP DP  RH WIND       PRES   REMARKS
NORTH BEND     CLOUDY    48  47  96 S7        29.84R
6HR MIN TEMP:  48; 6HR MAX TEMP:  52; 6HR PCP:  0.41;

BROOKINGS      CLOUDY    51  49  92 VRB5      29.91R
ROSEBURG       LGT RAIN  47  45  93 CALM      29.83R
6HR MIN TEMP:  47; 6HR MAX TEMP:  49; 6HR PCP:  0.28;

SEXTON SUMMIT  FOG       36  35  96 SW12G18   29.80R VSB 1/4 WCI  28
6HR MIN TEMP:  34; 6HR MAX TEMP:  36; 6HR PCP:  0.06;

GRANTS PASS    CLOUDY    45  43  93 CALM      29.90R
MEDFORD        CLOUDY    46  45  96 S7        29.85R
6HR MIN TEMP:  45; 6HR MAX TEMP:  46; 6HR PCP:  0.02;

$$

ORZ014>016-041-201300-
COLUMBIA GORGE


CITY           SKY/WX    TMP DP  RH WIND       PRES   REMARKS
TROUTDALE      CLOUDY    50  45  83 SW12      29.69R
6HR MIN TEMP:  50; 6HR MAX TEMP:  52; 6HR PCP: TRACE;

HOOD RIVER     CLOUDY    46  43  87 CALM      29.63R
THE DALLES     CLOUDY    49  43  80 NW6       29.63R
6HR MIN TEMP:  47; 6HR MAX TEMP:  52; 6HR PCP: TRACE;

$$

ORZ029>031-041-044-049-050-061>064-502-503-505>511-201300-
EASTERN OREGON


CITY           SKY/WX    TMP DP  RH WIND       PRES   REMARKS
MADRAS         PTCLDY    43  43 100 S8        29.67R
REDMOND        PTCLDY    39  31  72 SW9       29.66R WCI  33
6HR MIN TEMP:  38; 6HR MAX TEMP:  42;

BEND           PTCLDY    39  32  75 SW16G24   29.67R WCI  30
PRINEVILLE     MOCLDY    39  34  81 SW12      29.67R WCI  32
KLAMATH FALLS  LGT RAIN  34  50 100 S6        29.81R WCI  29
6HR MIN TEMP:  33; 6HR MAX TEMP:  36; 6HR PCP:  0.12;

LAKEVIEW       MOCLDY    33  30  88 SW12      29.78R WCI  24
HERMISTON      CLOUDY    49  42  77 SW8       29.58S
6HR MIN TEMP:  48; 6HR MAX TEMP:  50; 6HR PCP:  0.05;

PENDLETON      CLOUDY    45  41  86 S9        29.58F
6HR MIN TEMP:  45; 6HR MAX TEMP:  47; 6HR PCP:  0.24;

JOHN DAY       CLOUDY    38  37  94 CALM      29.64S
MEACHAM        LGT RAIN  34  32  92 CALM      29.58F
6HR MIN TEMP:  33; 6HR MAX TEMP:  40; 6HR PCP:  0.38;

LA GRANDE      LGT RAIN  39  37  92 CALM      29.62S
6HR MIN TEMP:  38; 6HR MAX TEMP:  49; 6HR PCP:  0.05;

BAKER CITY     CLOUDY    40  38  93 SW6       29.60S
6HR MIN TEMP:  40; 6HR MAX TEMP:  65; 6HR PCP:  0.22;

BURNS          CLOUDY    36  36 100 S9        29.67S WCI  29
6HR MIN TEMP:  35; 6HR MAX TEMP:  54; 6HR PCP:  0.05;

ROME             N/A     40  37  89 S16       29.67R WCI  31
6HR MIN TEMP:  40; 6HR MAX TEMP:  61; 6HR PCP:  0.03;

ONTARIO        CLOUDY    47  39  74 W15       29.62R
6HR MIN TEMP:  46; 6HR MAX TEMP:  55; 6HR PCP:  0.01;

$$



USA.gov is the U.S. government's official web portal to all federal, state and local government web resources and services.